Regional Weather Roundup
Issued by NWS Huntsville, AL

Home | Current Version | Previous Version | Text Only | Print | Product List | Glossary On
Versions: 1 2 3 4 5 6 7 8 9 10 11 12 13 14 15 16 17 18 19 20 21 22 23 24 25 26 27 28 29 30 31 32 33 34 35 36 37 38 39 40 41 42 43 44 45 46 47 48 49 50
000
ASUS44 KHUN 020710
RWRHUN

WEATHER ROUNDUP FOR THE TENNESSEE VALLEY
NATIONAL WEATHER SERVICE HUNTSVILLE AL
200 AM CDT TUE SEP 02 2014

ALZ001>004-020800-
NORTHWEST ALABAMA

CITY           SKY/WX    TMP DP  RH WIND       PRES   REMARKS
SHOALS AIRPORT CLEAR     71  68  90 CALM      30.06R
SHOALS TVA RES   N/A     72 N/A N/A MISG        N/A
$$

ALZ005>007-016-020800-
NORTH CENTRAL ALABAMA

CITY           SKY/WX    TMP DP  RH WIND       PRES   REMARKS
DECATUR AP     CLEAR     73  71  93 MISG      30.05S
HUNTSVILLE AP  CLEAR     75  71  87 SE3       30.05S
HUN NWS/UAH      N/A     76  70  80 SE2         N/A
MERIDIANVILLE  CLEAR     70  66  88 CALM      30.06R
VINEMONT AP    FAIR      71  69  96 CALM      30.09S
$$

ALZ008>010-020800-
NORTHEAST ALABAMA

CITY           SKY/WX    TMP DP  RH WIND       PRES   REMARKS
ALBERTVILLE    CLEAR     72  72 100 SE3       30.08S
FORT PAYNE     CLEAR     70  66  88 CALM      30.08S
SCOTTSBORO AP  MOCLDY    72  72 100 CALM      30.07S
SCOTTSBORO HCN   N/A     72 N/A N/A MISG        N/A
VALLEY HEAD      N/A     73 N/A N/A MISG        N/A
$$

TNZ076-096-097-020800-
SOUTHEASTERN MIDDLE TENNESSEE

CITY           SKY/WX    TMP DP  RH WIND       PRES   REMARKS
FAYETTEVILLE   CLEAR     73  70  88 S3        30.07R
TULLAHOMA      CLEAR     70  66  88 CALM      30.09R
WINCHESTER     CLEAR     73  70  88 CALM      30.08R
$$

...SURROUNDING SITES...

CITY           SKY/WX    TMP DP  RH WIND       PRES   REMARKS
ATLANTA        PTCLDY    73  70  90 CALM      30.09F
ANNISTON       CLEAR     74  69  85 CALM      30.08S
BIRMINGHAM     CLEAR     79  69  71 S6        30.08S
CHATTANOOGA    CLEAR     74  70  87 CALM      30.08R
CORINTH        FAIR      75  72  88 CALM      30.02S
DALTON         CLEAR     70  70 100 CALM      30.09R
GADSDEN        CLEAR     72  68  88 CALM      30.07S
GOLDEN TRNGL   PTCLDY    79  70  73 SW3       30.04R
HALEYVILLE     FAIR      74  70  87 SW3       30.09R
JACKSON TN     PTCLDY    76  71  85 S8        30.00S
LEWISBURG      FAIR      70  67  90 CALM      30.04S
MEMPHIS        CLEAR     79  71  76 S9        30.00S
MURFREESBORO   FAIR      75  69  81 S5        30.04R
NASHVILLE      CLEAR     73  69  87 S3        30.03S
ROME           CLEAR     70  69  97 CALM      30.08S
SAVANNAH       CLEAR     77  73  88 S6        30.03S
TUPELO         CLEAR     76  70  82 SW5       30.04R
TUSCALOOSA     CLEAR     76  71  85 S5        30.04S
$$

...GULF COAST WEATHER...

CITY           SKY/WX    TMP DP  RH WIND       PRES   REMARKS
GULFPORT       PTCLDY    82  75  79 S7        30.01F
PASCAGOULA     PTCLDY    76  75  97 CALM      30.02F
MOBILE         CLEAR     79  76  90 S8        30.03F
GULF SHORES    MOSUNNY   82  76  81 S8        30.02F HX  90
PENSACOLA      PTCLDY    83  75  77 S12       30.02F HX  90
DESTIN         CLEAR     85  76  74 VRB5      30.03F HX  94
PANAMA CITY    CLEAR     77  77 100 E3        30.05F
APPALACHICOLA  CLEAR     75  73  93 CALM      30.04F
$$




USA.gov is the U.S. government's official web portal to all federal, state and local government web resources and services.